Simultaneous Nadir Overpasses (SNOs) Predictions

Prediction of SNOs between NOAA-19 and TERRA Satellite Orbit:

Table of predicted SNOs for the next 14.0 days since TLE Epoch: 5/25/2024
Index Date (NOAA-19) Time (NOAA-19) Lat,Lon (NOAA-19) SZA (NOAA-19 ) Date (TERRA) Time (TERRA) Lat,Lon (TERRA) SZA (TERRA ) Distance(km) Time Diff (sec)
1 05/26/2024 07:09:21 79.15, 86.89 58.26 05/26/2024 07:09:29 79.14, 86.86 58.26 0.73 8
2 05/28/2024 10:08:24 79.03, 41.27 57.76 05/28/2024 10:09:21 79.02, 41.19 57.76 1.92 57
3 05/28/2024 10:59:24 -79.18,-150.29 122.05 05/28/2024 10:58:39 -79.19,-150.16 122.04 3.05 45
4 05/30/2024 13:58:27 -79.05, 164.00 122.54 05/30/2024 13:58:31 -79.06, 164.06 122.53 1.45 4
5 06/01/2024 16:57:29 -78.95, 118.50 122.97 06/01/2024 16:58:22 -78.94, 118.41 122.98 2.16 53
6 06/01/2024 17:48:17 79.14, -72.74 57.29 06/01/2024 17:47:37 79.14, -72.78 57.28 0.85 40
7 06/03/2024 20:47:20 79.00,-118.50 56.84 06/03/2024 20:47:28 78.99,-118.60 56.83 2.36 8
8 06/05/2024 23:46:24 78.82,-164.54 56.37 06/05/2024 23:47:19 78.82,-164.53 56.38 0.30 55
9 06/06/2024 00:37:21 -79.05, 4.37 123.34 06/06/2024 00:36:36 -79.05, 4.43 123.34 1.57 45



Historial Predications of SNOs between NOAA-19 and TERRA
